Regional Weather Roundup
Issued by NWS

Home | Current Version | Previous Version | Text Only | Print | Product List | Glossary On
Versions: 1 2 3 4 5 6 7 8 9 10 11 12 13 14 15 16 17 18 19 20 21 22 23 24 25 26 27 28 29 30 31 32 33 34 35 36 37 38 39 40 41 42 43 44 45 46 47 48 49 50
000
ASUS43 KMPX 291710
RWRMN
WEATHER ROUNDUP FOR MINNESOTA
NATIONAL WEATHER SERVICE TWIN CITIES/CHANHASSEN MN
1200 PM CDT WED JUN 29 2016


NOTE: "FAIR" INDICATES FEW OR NO CLOUDS BELOW 12,000 FEET WITH NO
SIGNIFICANT WEATHER AND/OR OBSTRUCTIONS TO VISIBILITY. N/A MEANS
CURRENT SKY AND/OR WEATHER CONDITIONS ARE NOT AVAILABLE.

MNZ060>063-068>070-291800-
   Twin Cities Metro

CITY           SKY/WX    TMP DP  RH WIND       PRES   REMARKS
TWIN CITIES    PTSUNNY   74  52  46 VRB5      30.11F
ST PAUL        PTSUNNY   74  51  44 SW5       30.12S
CRYSTAL        SUNNY     75  49  39 VRB3      30.10S
BLAINE         PTSUNNY   75  54  46 S6        30.11F
LAKEVILLE      MOSUNNY   72  52  49 CALM      30.11F
EDEN PRAIRIE   MOSUNNY   76  51  41 SE5       30.10F
LAKEVILLE      MOSUNNY   72  52  49 CALM      30.11F
SOUTH ST PAUL  SUNNY     74  52  45 E7        30.11F
LAKE ELMO      PTSUNNY   72  54  53 CALM      30.13S
$$
MNZ001>005-007-008-013>017-022>024-027-028-291800-
   Northwest Minnesota

CITY           SKY/WX    TMP DP  RH WIND       PRES   REMARKS
BEMIDJI        SUNNY     77  53  44 SW9       30.07S
HALLOCK        SUNNY     81  61  50 W9        30.00F
ROSEAU         SUNNY     79  61  53 W12G18    30.00F
WARROAD        SUNNY     79  61  53 W16G22    30.00S
THIEF RVR FALL SUNNY     75  58  55 SW9       30.05F
CROOKSTON      SUNNY     77  57  50 SW10      30.04F
FOSSTON        SUNNY     75  52  43 SW9       30.07F
DETROIT LAKES  SUNNY     75  50  41 S7        30.10F
MOORHEAD       SUNNY     79  52  38 W9        30.07F
PARK RAPIDS    MOSUNNY   77  52  41 VRB7      30.09F
MAHNOMEN       FAIR      75  55  50 W7        30.08S
$$
MNZ006-009>011-018-025>026-291800-
   North Central Minnesota

CITY           SKY/WX    TMP DP  RH WIND       PRES   REMARKS
BAUDETTE       SUNNY     78  56  46 W14G23    29.99F
FLAG ISLAND    SUNNY     77  57  50 W15       29.95S
INTL FALLS     MOSUNNY   79  59  50 W9G17     29.99F
WASKISH        SUNNY     73  61  64 SW9G16    30.04F
BIG FORK       SUNNY     75  55  50 SW8       30.05F
LONGVILLE      SUNNY     75  55  50 SW6       30.08F
GRAND RAPIDS   SUNNY     74  54  49 W9        30.09F
CRANE LAKE     SUNNY     72  57  60 SW8       30.03F
ORR            MOSUNNY   72  55  56 S6        30.01F
COOK           MOSUNNY   73  54  49 SW9       30.05F
WALKER         FAIR      74  53  48 SW8       30.08S
$$
MNZ012-019>021-037-291800-
   Northeast Minnesota

CITY           SKY/WX    TMP DP  RH WIND       PRES   REMARKS
DULUTH         MOSUNNY   74  51  44 W10       30.08F
ELY            MOSUNNY   73  54  49 W6G20     30.04S
HIBBING        SUNNY     73  53  49 VRB7      30.07F
EVELETH        SUNNY     73  49  42 W9        30.08S
DULUTH HARBOR  MOSUNNY   75  57  53 SW9       30.07S
TWO HARBORS    SUNNY     79  57  47 W8        30.05S
SILVER BAY     MOSUNNY   77  54  44 SW6       30.03F
GRAND MARAIS     N/A     55  47  74 W12       30.03F
G MARAIS ARPRT PTSUNNY   72  52  49 S9G16     30.05F
$$
MNZ029>031-032-039>041-046>048-054>057-064-291800-
   West Central Minnesota

CITY           SKY/WX    TMP DP  RH WIND       PRES   REMARKS
FERGUS FALLS   SUNNY     75  52  43 S5        30.05F
WHEATON        SUNNY     79  55  44 CALM      30.09F
MORRIS         SUNNY     77  54  44 CALM      30.08F
ALEXANDRIA     MOSUNNY   75  48  38 VRB5      30.12S
ELBOW LAKE     FAIR      74  51  43 NE3       30.10F
WADENA         SUNNY     73  54  49 SW9       30.09F
GLENWOOD       SUNNY     73  50  43 S6        30.11F
APPLETON       SUNNY     79  52  38 E3        30.08S
BENSON         SUNNY     77  48  36 S3        30.09F
ORTONVILLE     MOSUNNY   77  54  44 SE7       30.08S
MADISON        MOSUNNY   79  55  44 S6        30.08S
WILLMAR        FAIR      75  54  46 S3        30.11F
$$
MNZ033>034-036-042>043-049>051-058-059-291800-
   Central Minnesota

CITY           SKY/WX    TMP DP  RH WIND       PRES   REMARKS
ST CLOUD       MOSUNNY   72  52  49 SW3       30.10F
SAUK CENTRE    FAIR      74  52  46 CALM      30.11S
PAYNESVILLE    MOSUNNY   75  50  40 CALM      30.11F
AITKIN         SUNNY     75  48  38 SW5       30.08S
PINE RIVER     SUNNY     73  54  49 SW7       30.12S
BRAINERD       MOSUNNY   73  52  47 NW6       30.10F
STAPLES        SUNNY     75  48  38 SW7       30.10S
LONG PRAIRIE   FAIR      72  52  49 SW7       30.12S
LITTLE FALLS   MOSUNNY   72  45  37 SW6       30.11S
LITCHFIELD     SUNNY     75  52  43 S3        30.11S
BUFFALO        SUNNY     74  49  41 SE5       30.12F
MAPLE LAKE     CLOUDY    75  56  50 CALM      30.11F
HUTCHINSON     SUNNY     74  53  47 S3        30.12S
$$
MNZ037-044-045-052-053-291800-
   East Central Minnesota

CITY           SKY/WX    TMP DP  RH WIND       PRES   REMARKS
PRINCETON      MOSUNNY   75  54  46 CALM      30.11S
MORA           CLOUDY    70  52  52 W3        30.12S
CAMBRIDGE        N/A     75  55  50 S3        30.09S
RUSH CITY      PTSUNNY   72  55  55 SW5       30.11S
MOOSE LAKE     MOSUNNY   72  54  53 CALM      30.08S
HINCKLEY       FAIR      72  55  56 W6        30.11S
CLOQUET        MOSUNNY   75  48  38 W10       30.09S
MCGREGOR       SUNNY     73  52  46 W3        30.09F
$$
MNZ071>073-080-081-089-090-097-098-291800-
   Southwest Minnesota

CITY           SKY/WX    TMP DP  RH WIND       PRES   REMARKS
MONTEVIDEO     MOSUNNY   79  57  47 S5        30.10F
GRANITE FALLS  SUNNY     77  58  50 SE3       30.10F
CANBY          SUNNY     81  61  49 E7        30.09S
MARSHALL       MOSUNNY   78  59  51 VRB7      30.09S
REDWOOD FALLS  PTSUNNY   77  55  46 SE6       30.09S
OLIVIA         SUNNY     73  54  49 SE5       30.09F
PIPESTONE      MOSUNNY   75  63  64 S6        30.10S
WINDOM         MOSUNNY   73  61  64 S3        30.10S
WORTHINGTON    PTSUNNY   72  64  76 S10       30.11F
JACKSON        PTSUNNY   73  61  64 S9        30.12S
TRACY          MOSUNNY   78  60  54 SE6       30.09F
SLAYTON        MOSUNNY   74  60  61 SE6       30.11S
$$
MNZ065>067-074>077-082>085-091>093-291800-
   South Central Minnesota

CITY           SKY/WX    TMP DP  RH WIND       PRES   REMARKS
MANKATO        SUNNY     73  52  46 S3        30.12S
NEW ULM        SUNNY     73  54  49 E3        30.10S
ST JAMES       SUNNY     70  57  64 S5        30.11S
FAIRMONT       MOSUNNY   72  61  68 S10       30.11S
GLENCOE        SUNNY     75  54  48 SE6       30.11S
FARIBAULT      SUNNY     73  50  43 S5        30.12F
OWATONNA       PTSUNNY   73  50  43 CALM      30.13S
ALBERT LEA     CLOUDY    72  52  49 CALM      30.12F
$$
MNZ078>079-086>088-094>096-291800-
   Southeast Minnesota

CITY           SKY/WX    TMP DP  RH WIND       PRES   REMARKS
ROCHESTER      MOSUNNY   72  56  57 SW5       30.14F
RED WING       SUNNY     75  52  43 S5        30.11S
STANTON        SUNNY     73  50  43 CALM      30.11S
DODGE CENTER   PTSUNNY   73  52  46 W5        30.13F
WINONA         MOSUNNY   73  55  53 S5        30.13S
AUSTIN         PTSUNNY   72  54  53 SW6       30.13S
PRESTON        MOSUNNY   70  52  52 S6        30.15F
$$
ABBREVIATIONS USED IN REMARKS
   TC - TEMPERATURES IN CELSIUS
  WCI - WIND CHILL INDEX
   HX - HEAT INDEX
  VSB - VISIBILITY
$$



USA.gov is the U.S. government's official web portal to all federal, state and local government web resources and services.